EA5AER-5 Weather Reports


time (UTC)temp
C
wind
direction
speed
KPH
gust
KPH
rain 1hr
cm
rain 24hr
cm
rain mn
cm
humidity
%
barometer
mb
20260507141749 19 16 9.7 19.3 0.00 0.03 0.03 73 1008.8
20260507135754 19 16 9.7 19.3 0.00 0.03 0.03 73 1008.8
20260507133706 19 22 8.0 19.3 0.00 0.00 0.00 74 1009.9
20260507131842 19 22 8.0 19.3 0.00 0.00 0.00 74 1009.9
20260507125705 19 22 8.0 19.3 0.00 0.00 0.00 74 1009.9
20260507123619 19 22 8.0 19.3 0.00 0.00 0.00 74 1009.9
20260507121629 19 22 8.0 19.3 0.00 0.00 0.00 74 1009.9
20260507115803 19 22 8.0 19.3 0.00 0.00 0.00 74 1009.9
20260507113740 19 41 8.0 12.9 0.00 0.00 0.00 73 1010.2
20260507111735 19 52 6.4 12.9 0.00 0.00 0.00 74 1010.2
20260507105754 19 40 9.7 12.9 0.00 0.00 0.00 75 1010.3
20260507103913 19 40 9.7 12.9 0.00 0.00 0.00 75 1010.3
20260507101913 19 40 9.7 12.9 0.00 0.00 0.00 75 1010.3
20260507100037 19 33 6.4 14.5 0.00 0.00 0.00 73 1010.5
20260507093829 19 31 3.2 11.3 0.00 0.00 0.00 76 1010.6
20260507091627 18 11 8.0 11.3 0.00 0.00 0.00 76 1010.5
20260507085533 18 22 3.2 12.9 0.00 0.00 0.00 75 1010.6
20260507083543 18 334 6.4 12.9 0.00 0.00 0.00 75 1010.2
20260507081534 17 312 6.4 11.3 0.00 0.00 0.00 75 1010.2
20260507075609 17 312 6.4 11.3 0.00 0.00 0.00 75 1010.2
20260507073639 17 267 6.4 9.7 0.00 0.00 0.00 75 1010.1
20260507071527 17 267 6.4 9.7 0.00 0.00 0.00 75 1010.1
20260507065524 16 208 8.0 9.7 0.00 0.00 0.00 79 1010.2
20260507063533 16 208 8.0 9.7 0.00 0.00 0.00 79 1010.2
20260507061709 15 263 6.4 9.7 0.00 0.00 0.00 78 1010.0
20260507055738 15 230 3.2 4.8 0.00 0.00 0.00 79 1009.5
20260507053619 15 230 3.2 4.8 0.00 0.00 0.00 79 1009.5
20260507051529 15 230 3.2 4.8 0.00 0.00 0.00 79 1009.5
20260507045436 15 242 4.8 8.0 0.00 0.00 0.00 80 1009.5
20260507043404 15 242 4.8 8.0 0.00 0.00 0.00 80 1009.5
20260507041227 16 220 1.6 4.8 0.00 0.00 0.00 78 1009.5
20260507035147 16 220 1.6 4.8 0.00 0.00 0.00 78 1009.5
20260507033204 16 216 1.6 3.2 0.00 0.00 0.00 78 1009.5
20260507031159 15 215 3.2 4.8 0.00 0.00 0.00 79 1009.7
20260507025311 15 247 3.2 4.8 0.00 0.00 0.00 80 1009.7
20260507023419 15 247 3.2 4.8 0.00 0.00 0.00 80 1009.7
20260507021259 15 261 4.8 8.0 0.00 0.00 0.00 80 1009.7
20260507015246 15 258 3.2 4.8 0.00 0.00 0.00 81 1009.7
20260507013242 15 258 3.2 4.8 0.00 0.00 0.00 81 1009.7
20260507011244 15 258 3.2 4.8 0.00 0.00 0.00 81 1009.7
20260507005228 15 258 3.2 4.8 0.00 0.00 0.00 81 1009.7
20260507003048 15 232 1.6 3.2 0.00 0.00 0.00 79 1009.9
20260507001114 15 223 1.6 4.8 0.00 0.00 0.00 78 1010.3
20260506235124 15 223 1.6 4.8 0.00 0.00 0.00 78 1010.3
20260506233253 15 244 3.2 4.8 0.00 0.00 0.00 77 1010.3
20260506231407 15 261 4.8 8.0 0.00 0.00 0.00 77 1010.4
20260506225453 15 278 4.8 8.0 0.00 0.00 0.00 77 1010.5
20260506223607 15 267 4.8 4.8 0.00 0.00 0.00 77 1010.6
20260506221454 15 259 8.0 11.3 0.00 0.00 0.00 78 1010.6
20260506215336 16 253 4.8 8.0 0.00 0.00 0.00 77 1010.4
20260506213323 16 253 4.8 8.0 0.00 0.00 0.00 77 1010.4
20260506211235 17 141 1.6 3.2 0.00 0.00 0.00 75 1009.9
20260506205026 17 141 1.6 3.2 0.00 0.00 0.00 75 1009.9
20260506202853 17 140 8.0 9.7 0.00 0.00 0.00 73 1009.8
20260506201029 17 140 4.8 8.0 0.00 0.00 0.00 72 1009.8
20260506195222 17 131 6.4 9.7 0.00 0.00 0.00 71 1009.3
20260506193122 18 117 8.0 12.9 0.00 0.00 0.00 65 1009.1
20260506191213 18 117 8.0 12.9 0.00 0.00 0.00 65 1009.1
20260506185214 18 117 8.0 12.9 0.00 0.00 0.00 65 1009.1
20260506183152 18 117 8.0 12.9 0.00 0.00 0.00 65 1009.1
20260506181112 18 113 8.0 11.3 0.00 0.00 0.00 66 1008.9
20260506175034 18 125 4.8 12.9 0.00 0.08 0.00 66 1008.8
20260506172940 18 84 9.7 19.3 0.00 0.08 0.00 66 1008.9
20260506170859 18 85 9.7 19.3 0.00 0.08 0.00 66 1008.9
20260506164647 18 91 8.0 19.3 0.00 0.08 0.00 66 1009.8
20260506162532 18 91 8.0 19.3 0.00 0.08 0.00 66 1009.8
20260506160524 18 91 8.0 19.3 0.00 0.08 0.00 66 1009.8
20260506154430 18 91 8.0 19.3 0.00 0.08 0.00 66 1009.8
20260506152431 18 91 8.0 19.3 0.00 0.08 0.00 66 1009.8
20260506150302 18 91 8.0 19.3 0.00 0.08 0.00 66 1009.8
20260506144122 18 91 8.0 19.3 0.00 0.08 0.00 66 1009.8